Theta_e
305 304 304 304 302 302 302 302 303 303 303 305 306 307 311 311 311 312 314 316 318 320 320 319 319 321 322 323 324 324 325 326 327 326 327 327 327 328 329 333 336 338 342 338 339 340 340 336 336 337 338 335 334 335
304 303 303 302 301 302 301 301 304 305 303 304 305 306 307 310 311 310 312 316 315 316 318 315 315 316 317 319 322 322 323 326 329 330 332 334 339 335 335 338 333 335 338 340 335 337 340 339 336 334 333 338 335 335
304 303 303 301 301 301 301 301 304 304 304 304 305 306 306 308 310 310 311 313 315 316 316 318 319 319 319 317 317 321 321 322 323 324 326 334 336 335 340 338 340 339 334 342 341 337 338 335 334 336 334 334 335 334
303 303 301 301 301 301 301 301 303 304 304 304 304 305 306 307 308 310 311 312 313 315 316 317 317 317 317 318 319 319 319 319 319 320 324 327 331 328 337 338 335 336 333 336 339 341 343 336 333 334 333 334 335 335
303 302 302 302 302 301 301 300 302 303 304 304 304 305 306 306 307 310 311 311 312 315 317 316 314 317 319 318 319 320 320 320 321 321 323 327 325 327 328 330 332 334 334 335 336 332 336 340 337 336 337 335 336 339
302 302 301 302 301 301 300 300 302 303 304 304 304 304 305 306 306 309 314 312 313 313 314 316 317 317 317 319 319 320 321 320 320 322 322 323 323 329 329 328 329 328 332 331 332 328 331 336 337 339 339 337 337 340
302 302 301 301 301 301 300 300 302 304 304 304 304 304 304 305 308 310 314 311 311 311 314 317 320 320 320 321 322 323 322 321 320 321 322 323 330 326 326 328 326 326 330 332 329 328 332 334 339 339 338 336 336 339
302 301 302 301 301 301 300 299 301 304 304 303 303 304 304 305 307 310 310 310 310 312 315 318 321 323 321 327 327 322 324 323 322 321 322 322 327 330 330 326 326 326 327 329 330 333 337 336 336 336 337 337 339 341
301 302 302 301 300 300 300 299 300 304 303 303 303 304 307 309 311 314 311 311 311 313 316 317 321 325 320 325 326 324 323 323 321 323 322 321 325 331 325 326 328 329 329 330 331 334 336 336 335 339 339 338 340 340
301 301 301 300 300 300 299 299 300 303 303 305 307 312 314 313 312 312 314 315 314 313 312 316 317 320 319 323 326 325 326 329 328 324 324 324 326 326 326 326 331 328 327 330 335 335 337 336 340 340 339 338 339 339
302 301 300 299 300 299 299 299 301 303 309 312 313 314 314 313 314 316 318 316 317 318 317 318 320 321 320 322 326 325 326 328 329 330 327 327 327 327 326 329 330 331 328 332 334 335 336 336 340 337 339 338 339 338
301 299 299 300 299 299 301 300 301 306 308 306 306 308 311 314 317 318 318 320 320 323 322 324 324 323 320 320 328 327 326 325 328 329 330 331 338 333 334 331 329 331 327 332 332 334 332 334 337 340 340 339 338 336
300 298 298 298 298 300 300 299 301 303 304 308 311 313 316 317 315 318 320 322 322 320 322 323 324 322 325 324 327 327 326 329 327 330 333 336 330 330 331 334 329 327 328 331 332 330 331 336 333 335 336 336 337 336
298 298 298 298 299 300 300 300 303 304 306 313 315 314 316 317 317 318 320 321 320 318 320 320 320 323 326 326 327 328 327 325 331 333 334 331 333 333 334 335 331 329 330 330 330 330 333 333 333 333 337 335 334 333
298 298 298 300 303 302 303 303 303 306 310 314 314 319 316 316 317 318 320 319 320 320 322 323 322 322 326 327 328 329 330 333 333 331 333 334 332 332 336 339 334 330 330 330 331 331 331 332 333 333 334 332 333 329
298 299 303 303 303 302 303 305 305 307 310 313 314 316 316 316 317 319 319 321 318 318 319 324 324 326 328 330 330 329 331 333 333 331 331 332 329 334 337 339 338 332 328 329 331 333 331 333 333 333 333 330 332 332
298 304 305 303 304 306 305 307 309 311 313 314 314 315 315 315 315 316 316 318 317 319 322 324 323 326 325 330 332 332 333 330 331 331 333 330 329 336 336 339 337 336 335 331 332 332 334 331 331 332 338 336 334 336
304 306 303 303 304 306 308 307 310 312 313 314 314 314 315 315 315 315 316 318 318 319 320 323 322 325 326 328 329 329 331 329 329 329 333 332 329 336 335 338 339 338 334 332 333 331 332 331 333 333 336 334 334 335
305 304 303 301 303 305 309 310 309 312 313 314 314 314 314 315 315 315 317 317 318 318 318 320 324 321 322 322 325 328 330 331 331 331 327 334 333 334 336 333 335 336 336 336 336 332 332 328 331 330 331 333 330 330
300 300 300 300 302 308 310 312 312 313 314 315 315 315 316 316 316 316 317 318 319 319 319 320 320 323 324 323 325 326 329 328 327 329 328 330 331 334 334 330 329 331 333 333 333 330 331 333 332 331 329 329 329 328
303 304 304 302 307 308 308 311 314 314 314 315 316 317 316 317 318 318 319 319 319 320 320 320 321 322 325 326 325 326 332 331 332 328 330 329 330 330 332 332 328 328 329 335 334 333 334 333 333 332 330 331 328 330
306 304 307 305 308 309 310 310 311 312 312 314 315 316 317 318 319 318 320 320 319 320 320 320 321 320 321 327 322 325 325 327 330 329 327 324 329 329 331 332 333 335 331 328 330 332 330 331 331 333 333 332 328 325
304 305 307 308 310 312 310 310 313 314 315 315 316 319 320 321 321 321 325 323 321 322 323 321 324 324 326 321 324 325 324 324 328 329 327 326 326 328 328 330 330 333 335 333 331 331 329 330 330 332 332 332 332 331
304 307 309 310 310 310 310 312 314 314 314 316 318 319 320 320 322 325 325 324 323 325 324 329 324 324 324 327 323 323 323 324 324 325 325 326 326 326 329 329 328 332 332 334 333 331 331 329 330 331 330 327 326 323
306 305 309 310 310 312 311 312 313 313 316 317 319 319 322 324 325 325 327 328 331 329 331 333 332 329 329 327 326 323 322 324 325 325 325 325 326 325 327 326 328 329 328 330 330 331 331 330 327 325 322 320 318 317
309 308 310 310 311 311 313 314 317 318 318 319 319 320 322 322 323 325 327 328 329 327 327 328 329 332 332 330 329 326 323 322 322 325 325 324 325 328 330 329 330 330 329 328 328 328 327 325 322 319 317 316 316 316
308 309 310 309 311 312 314 316 316 318 319 319 320 319 320 322 324 327 324 324 321 321 322 324 326 327 330 330 328 326 324 322 321 325 324 325 327 328 329 331 331 329 328 327 326 324 323 322 321 320 319 317 317 317
308 310 312 312 311 312 313 314 316 317 319 318 316 319 320 321 323 321 317 315 315 318 321 324 325 326 328 329 329 326 324 323 321 324 326 326 326 327 327 326 325 326 327 326 323 321 320 319 318 318 318 318 317 317
309 310 310 312 313 315 315 315 316 318 319 318 318 319 318 318 316 314 315 316 319 322 326 328 329 329 328 329 327 325 323 323 325 328 328 326 326 325 324 323 323 323 323 322 321 320 320 320 319 318 319 319 317 316
310 310 313 314 315 316 316 317 319 318 318 317 317 317 317 315 315 316 318 320 322 327 328 328 328 328 329 327 325 324 323 323 323 323 326 324 323 322 321 320 320 320 320 320 320 319 320 321 321 321 322 322 319 318
310 311 312 312 312 313 315 317 316 316 316 317 318 317 318 318 318 321 323 324 324 325 327 329 327 327 327 327 325 326 325 324 325 323 321 320 319 317 317 318 318 319 320 320 321 322 322 322 323 322 320 320 321 319
312 312 313 314 314 315 316 316 316 316 316 318 322 321 322 324 325 325 322 324 324 326 327 327 326 326 325 324 323 322 321 322 322 321 319 319 319 319 318 319 318 317 318 318 318 318 318 318 318 319 319 319 320 319
313 313 314 316 316 315 315 314 316 319 324 326 326 327 327 325 322 321 319 321 323 325 324 325 325 325 324 323 322 320 319 318 317 317 317 318 318 318 318 319 318 318 318 318 319 319 319 318 319 319 318 318 318 318
Wind_Speed
11 11 10 11 12 11 11 13 14 15 15 14 14 12 12 13 13 12 14 8 6 5 15 20 18 14 14 11 10 8 8 2 9 12 14 14 16 16 19 21 19 13 15 15 14 18 18 16 12 11 13 9 2 8
9 9 10 11 10 11 11 12 13 15 15 14 13 13 12 12 12 12 16 12 8 6 12 32 32 30 28 25 14 14 10 14 3 6 6 6 7 8 15 13 17 9 8 15 15 13 11 10 5 4 15 12 7 8
8 9 10 10 10 11 12 12 12 13 13 13 14 14 13 11 12 10 15 15 15 4 13 13 13 17 18 28 26 12 11 15 9 3 6 3 5 7 8 9 8 13 16 9 11 15 10 6 15 25 14 3 9 10
9 10 10 10 11 12 12 12 11 11 12 12 13 14 13 11 13 11 15 15 8 4 4 7 19 26 22 20 20 24 20 20 12 8 5 7 8 8 5 4 6 4 9 13 10 12 18 9 9 4 10 10 11 12
9 9 9 10 10 11 11 12 12 12 12 12 12 12 12 13 13 12 17 18 17 5 4 11 32 28 19 21 19 21 16 14 10 10 10 8 7 11 7 8 9 5 4 2 5 20 18 14 6 11 14 11 11 13
7 7 9 9 9 10 11 12 12 12 12 12 13 13 13 13 13 11 2 5 2 5 2 4 13 15 19 13 16 10 9 10 11 9 9 7 12 2 8 9 10 7 12 12 6 14 20 28 19 20 24 14 15 15
7 8 8 9 9 11 12 12 12 13 13 13 14 14 13 12 10 9 5 2 5 1 2 5 5 4 2 2 4 7 15 7 10 9 12 10 4 4 9 15 15 14 5 8 9 2 21 29 27 20 19 18 15 17
8 8 7 8 10 11 12 13 13 13 14 16 16 15 14 13 14 11 11 17 16 6 5 4 5 1 10 1 2 3 6 7 9 8 8 10 8 3 6 12 15 18 17 16 13 13 23 17 12 10 17 17 16 16
8 7 8 10 11 12 13 13 13 15 16 17 17 16 12 6 4 1 1 1 10 5 3 3 5 3 3 2 2 4 3 3 4 7 12 8 11 8 10 13 15 16 15 11 10 14 22 19 14 17 18 16 17 16
7 7 9 11 12 13 13 14 14 16 18 14 8 4 3 3 4 3 1 2 3 3 3 4 8 10 10 5 1 2 3 2 3 7 7 9 15 18 19 18 15 8 10 12 4 10 19 7 22 18 17 14 16 16
8 8 10 12 12 12 12 13 12 16 6 2 3 2 6 5 4 3 3 3 4 4 5 5 7 7 5 4 3 4 2 2 3 3 4 4 12 17 21 20 18 15 11 11 10 24 17 13 10 13 17 15 17 18
8 9 9 10 11 10 11 12 10 7 5 9 12 13 8 4 3 3 4 3 5 2 4 5 4 4 3 3 3 4 3 1 5 2 3 4 4 10 18 19 19 15 15 13 14 16 11 12 5 5 12 12 16 23
9 9 10 11 10 10 12 11 8 9 13 8 5 4 3 3 1 4 4 2 3 4 2 6 7 3 3 4 4 3 3 4 2 3 3 1 8 8 16 12 8 13 16 15 12 7 8 11 10 24 10 11 14 24
9 10 10 11 10 11 11 7 6 6 4 3 3 4 4 4 4 3 5 4 2 3 5 6 5 3 3 3 2 3 4 1 4 3 4 4 9 12 14 11 7 16 16 16 11 9 7 8 2 5 20 26 9 15
9 10 10 10 10 6 3 4 4 4 4 4 3 4 5 5 6 3 6 4 4 5 5 3 3 3 3 4 3 4 4 4 3 3 2 5 7 9 9 12 6 13 13 11 7 6 5 6 7 6 23 26 39 21
7 8 8 6 6 7 7 4 4 4 4 4 5 8 7 6 6 5 5 8 2 5 5 2 2 3 4 3 5 5 6 2 2 2 4 6 8 12 9 10 10 1 8 5 8 6 6 6 7 8 29 31 28 11
4 4 3 6 7 5 5 4 4 5 4 4 5 7 8 8 7 7 7 5 1 6 4 1 2 3 6 4 4 4 4 3 2 3 4 1 6 10 8 8 7 6 15 10 7 9 11 11 12 9 6 18 29 39
4 5 3 5 4 1 4 6 4 4 6 7 9 8 4 6 8 8 8 7 3 5 4 2 3 2 5 8 5 5 5 4 3 4 4 7 9 5 5 8 7 5 5 3 8 9 4 5 4 8 10 12 14 14
4 4 3 5 3 2 3 4 6 4 6 10 7 6 6 7 7 8 10 8 5 6 4 3 2 1 3 4 7 8 6 5 8 8 6 11 2 5 5 4 6 5 2 4 6 7 19 17 30 14 16 17 11 14
8 8 7 5 2 2 3 4 5 4 5 5 7 7 6 6 9 6 8 7 5 5 5 4 5 6 5 7 7 7 7 5 7 7 10 2 1 7 5 6 4 6 4 9 8 4 8 6 6 11 11 5 12 9
6 8 6 5 4 6 3 3 4 5 6 4 8 7 6 8 8 8 9 10 8 8 9 10 9 9 11 8 10 3 5 3 7 8 7 7 9 12 11 9 6 5 8 5 6 7 12 12 16 11 12 6 9 17
3 6 4 6 4 6 5 9 4 5 6 9 11 10 7 8 9 7 7 8 9 11 8 8 8 9 8 7 5 8 6 9 11 10 2 11 1 4 5 5 8 4 6 5 6 7 10 12 17 21 19 14 19 15
2 5 4 5 4 3 6 7 4 4 3 4 3 5 4 3 3 4 3 5 8 10 11 8 9 14 9 10 6 7 9 9 6 5 8 12 14 6 15 9 3 3 3 6 7 8 9 12 18 18 17 15 19 17
4 3 3 3 4 4 3 4 4 4 4 7 4 5 7 4 2 3 8 6 5 3 4 7 5 5 7 8 7 8 11 11 12 6 11 5 4 4 12 10 9 4 8 3 9 9 10 10 17 18 19 22 20 19
2 5 4 4 4 4 4 7 10 7 8 7 6 8 3 5 3 3 4 2 5 6 5 6 5 6 8 4 6 10 11 13 7 5 7 6 10 13 9 21 23 10 12 21 12 11 17 19 22 22 24 24 24 21
4 5 6 6 4 5 4 3 1 1 4 3 4 3 3 2 4 3 2 4 4 4 5 5 5 6 7 7 4 4 11 9 8 4 4 3 11 13 8 7 3 12 16 21 8 19 20 22 21 22 24 23 23 20
4 6 6 7 4 4 4 4 4 3 4 2 3 4 3 3 4 2 1 2 7 14 14 10 7 6 5 6 8 9 5 6 5 10 14 11 18 11 13 9 7 11 14 14 17 23 24 21 21 21 18 16 16 15
6 5 7 6 8 9 9 5 3 2 0 2 0 3 3 3 3 3 6 19 22 17 17 11 10 9 10 8 7 7 6 3 8 13 21 17 17 14 14 15 15 14 14 16 20 27 27 24 18 16 15 14 12 12
6 6 7 9 9 5 4 4 4 1 2 2 2 2 3 3 4 9 24 23 21 13 11 12 11 9 9 10 10 13 11 8 14 10 13 4 8 16 14 14 15 17 17 18 20 24 21 19 20 19 16 14 14 14
12 9 7 5 4 4 3 2 2 2 1 2 2 2 5 10 22 25 21 18 15 12 10 9 8 9 9 12 4 3 10 13 12 13 9 8 11 11 14 20 21 19 16 16 15 16 16 12 11 8 9 10 15 12
5 6 6 7 8 7 3 3 4 5 7 7 6 8 13 7 9 14 14 17 19 14 6 6 9 10 7 3 11 12 7 18 23 22 17 19 18 18 17 20 18 16 15 15 14 13 14 16 16 16 10 8 11 14
4 6 8 11 8 3 4 1 3 3 3 5 9 8 9 5 6 4 6 9 7 5 8 9 4 5 21 14 13 14 9 17 23 24 22 19 17 18 19 19 16 14 12 8 7 12 10 4 8 16 13 13 17 18
6 5 3 1 1 2 2 2 4 4 4 3 3 5 4 3 3 4 9 15 17 12 7 7 12 26 18 18 19 19 17 14 10 14 17 15 10 3 8 14 12 11 11 12 12 13 15 12 5 10 12 9 11 13
Wind_Direction
278 293 301 306 315 323 328 330 330 332 332 332 330 321 326 332 337 343 304 339 331 288 295 294 296 304 299 289 273 303 346 319 309 257 259 247 253 253 254 255 259 233 258 232 233 240 238 202 226 229 193 336 45 79
277 291 298 306 314 320 326 329 331 331 331 330 330 325 313 319 322 325 297 322 318 273 292 300 289 276 265 269 285 288 269 285 45 315 325 339 323 314 301 291 263 245 255 277 228 233 236 162 183 85 233 178 136 126
277 286 299 306 313 317 322 325 325 330 335 335 332 329 321 306 313 304 304 303 310 298 291 260 278 261 241 236 246 261 269 278 296 336 313 309 274 302 291 292 358 335 5 346 297 260 283 238 186 203 207 314 119 152
276 289 297 305 311 314 317 319 319 325 330 330 331 329 324 314 308 291 292 299 298 296 281 289 321 318 301 287 243 239 245 263 277 280 299 282 255 276 272 274 293 288 326 346 292 280 337 235 236 151 184 173 152 147
273 286 297 306 312 315 319 318 316 317 320 326 325 326 326 321 310 300 282 278 259 238 291 300 302 281 256 240 259 232 260 274 268 251 252 258 283 299 276 283 267 171 178 70 286 310 303 312 349 316 263 153 157 135
265 280 301 303 311 317 321 319 316 316 316 318 319 318 318 319 320 308 298 29 91 177 300 303 320 285 273 261 220 256 259 248 247 248 244 258 252 270 280 261 288 299 172 162 238 260 299 299 281 283 220 160 135 133
270 289 299 304 311 316 319 319 314 314 316 311 312 309 304 298 300 265 297 292 6 30 249 279 270 347 82 313 265 262 257 232 239 238 245 242 208 202 251 263 259 270 265 194 239 286 290 262 255 199 136 130 136 137
272 283 292 300 306 310 314 316 312 311 311 311 310 303 298 295 291 268 254 254 231 271 257 270 275 353 342 282 282 318 259 259 237 244 238 239 246 197 249 253 246 250 250 253 248 249 262 268 293 127 124 138 138 133
273 284 296 302 306 310 313 316 312 310 311 313 307 300 290 247 247 85 131 107 196 257 284 279 295 309 249 92 34 315 274 246 254 248 239 249 236 221 237 253 253 258 244 249 256 270 278 267 302 153 137 153 136 132
267 286 297 301 304 307 310 315 313 313 315 311 303 242 233 192 268 310 219 204 189 199 228 256 279 272 291 342 81 291 295 258 262 245 224 223 246 244 236 239 257 252 274 231 228 272 289 225 232 142 157 157 146 139
271 286 296 298 298 304 312 315 313 323 336 289 269 251 306 260 248 187 226 216 172 231 207 240 269 291 18 295 300 182 273 277 251 246 307 251 245 234 234 229 225 217 225 234 187 233 275 259 213 178 167 155 144 144
271 291 296 296 299 305 313 314 310 315 325 308 296 291 274 226 214 247 232 186 224 279 345 334 326 292 283 226 271 183 246 223 259 158 239 277 303 338 327 210 224 186 198 220 231 249 278 296 252 161 157 158 150 149
278 288 290 293 296 303 308 305 293 303 316 289 227 239 223 222 290 222 251 82 341 5 302 333 317 307 281 217 261 255 244 247 347 249 229 2 311 323 327 295 185 184 189 207 230 244 268 291 250 109 282 40 156 147
279 288 291 289 293 305 300 289 296 324 281 245 237 259 240 232 247 262 278 310 329 252 290 288 298 272 298 242 242 252 222 304 270 305 348 311 328 330 323 332 181 185 190 185 207 240 230 265 225 252 116 111 59 326
282 287 286 295 303 288 296 306 298 275 261 262 248 245 241 261 287 303 307 296 257 241 266 251 237 244 252 247 208 253 233 228 187 231 310 322 324 327 313 301 217 175 186 185 228 200 211 222 213 220 114 130 159 202
285 300 264 263 288 271 262 292 253 248 253 249 241 252 261 275 284 279 257 257 244 292 293 70 281 266 248 243 192 230 304 43 314 300 305 327 325 328 328 321 302 119 142 168 208 218 197 193 192 198 134 128 132 198
255 241 267 311 311 295 236 209 226 228 250 234 249 250 275 274 286 287 312 306 267 283 316 159 287 291 287 267 9 359 338 311 264 282 289 281 299 322 343 335 315 308 162 175 191 198 179 180 170 166 157 161 170 189
263 226 263 319 318 300 203 214 248 253 250 246 254 263 265 284 297 292 284 264 184 260 291 238 243 315 313 326 344 337 306 326 302 302 335 291 289 357 17 6 342 351 175 207 163 185 139 180 211 199 161 174 168 168
287 276 289 313 344 305 253 229 228 266 254 269 257 252 267 273 259 270 280 269 206 231 286 273 119 36 265 263 276 283 289 312 328 319 298 269 302 41 107 80 52 69 6 224 202 203 132 219 250 185 182 169 194 180
260 257 260 272 289 269 270 246 222 254 274 301 302 283 266 255 271 250 261 266 249 201 232 236 223 184 203 254 239 259 280 126 236 271 284 327 72 116 72 88 70 5 107 169 173 284 283 157 247 260 248 215 213 204
264 233 231 204 231 232 261 269 259 263 292 283 284 287 279 277 263 252 249 256 239 215 235 246 255 276 180 219 246 323 245 336 343 10 356 28 11 14 51 57 58 48 67 14 52 84 54 20 2 313 246 150 112 75
245 190 211 201 245 211 248 236 258 299 274 273 283 278 275 275 269 251 247 256 256 258 248 241 258 277 280 258 264 254 326 328 315 323 268 279 217 62 68 30 17 49 93 87 74 81 56 38 24 37 94 78 59 63
246 214 226 227 247 232 252 255 230 247 262 270 264 280 292 305 285 293 264 240 243 240 241 234 238 236 249 285 302 265 274 281 285 295 318 73 331 37 50 2 133 94 110 138 144 111 97 77 59 47 51 77 116 96
241 249 234 223 222 264 254 239 235 259 254 249 271 286 290 288 284 261 264 251 244 304 235 200 201 230 222 212 241 241 235 240 265 247 306 131 223 34 115 126 339 70 18 199 157 149 130 115 91 74 81 77 71 73
155 256 174 221 239 248 248 237 237 240 271 307 290 272 337 360 303 267 270 45 34 21 6 345 31 2 312 249 224 200 209 227 238 229 229 293 73 66 313 23 356 85 88 47 54 105 98 91 91 83 77 88 92 89
217 225 190 215 211 235 220 268 315 312 296 269 271 360 5 290 252 272 45 339 11 11 9 6 352 327 316 352 345 326 161 208 244 273 118 76 54 63 80 102 54 30 76 105 108 98 85 88 92 100 101 101 105 98
239 236 212 227 255 242 287 303 312 253 250 270 355 350 296 259 263 103 212 15 347 334 326 313 289 280 301 311 308 315 39 124 222 71 77 70 71 61 90 78 58 45 73 91 100 107 110 115 114 115 115 115 113 111
233 267 251 229 252 250 260 273 265 268 180 83 268 249 275 286 319 3 333 319 308 296 293 286 274 266 277 270 289 297 282 213 156 91 82 78 76 85 83 83 84 89 97 106 109 111 115 120 118 126 129 128 130 140
226 234 245 246 238 213 235 231 246 169 112 154 246 254 259 259 266 288 299 296 289 282 284 273 254 232 234 236 228 222 209 165 116 122 108 116 84 72 92 102 101 102 109 112 121 130 137 140 145 156 157 157 162 165
231 226 237 243 215 238 248 320 0 86 182 208 229 261 267 279 282 285 283 285 293 277 265 249 217 192 200 191 159 243 182 147 174 139 111 103 108 113 120 112 112 113 119 130 140 146 152 159 173 187 188 207 198 196
232 218 240 257 265 267 324 6 310 300 284 275 256 245 262 284 310 291 243 243 248 265 259 198 161 178 224 150 125 82 61 88 105 111 115 129 140 143 144 146 146 146 150 152 157 172 186 204 204 168 153 183 172 132
231 236 241 251 260 301 10 314 309 284 267 241 247 227 244 233 226 230 231 196 200 138 136 169 105 50 98 104 124 146 138 114 127 137 141 151 154 161 170 181 183 148 153 151 159 150 160 125 164 161 143 87 128 150
236 227 223 266 291 296 288 198 217 242 245 248 252 212 223 219 64 65 43 145 151 110 114 112 116 123 145 140 128 111 103 95 84 112 111 94 89 31 207 161 168 155 135 145 145 124 115 128 92 80 123 101 91 112